Regional Weather Roundup
Issued by NWS

Home | Current Version | Previous Version | Text Only | Print | Product List | Glossary Off
Versions: 1 2 3 4 5 6 7 8 9 10 11 12 13 14 15 16 17 18 19 20 21 22 23 24 25 26 27 28 29 30 31 32 33 34 35 36 37 38 39 40 41 42 43 44 45 46 47 48 49 50

000
ASUS44 KMEG 231000
RWRTN
TENNESSEE HOURLY STATE WEATHER ROUNDUP
NATIONAL WEATHER SERVICE MEMPHIS TN
500 AM CDT SAT AUG 23 2014

TNZ002-004-019-021-049-052-054-088>092-231100-
WEST TENNESSEE

CITY           SKY/WX    TMP DP  RH WIND       PRES   REMARKS
MEMPHIS INTL   CLEAR     79  72  79 SW5       29.99S
NWS MEMPHIS      N/A     76 N/A N/A MISG        N/A
JACKSON        CLEAR     74  71  91 SW5       29.99R
DYERSBURG      CLEAR     77  66  69 SW5       29.99R
UNION CITY     CLEAR     73  73 100 S3        29.96S
PARIS          CLEAR     72  70  94 CALM      29.99S
LEXINGTON      CLEAR     72  72 100 CALM      29.99S
SAVANNAH       CLEAR     72  72 100 CALM      30.01S
$$

TNZ008-025-027-028-033-062-065-066-231100-
NORTH MIDDLE TENNESSEE

CITY           SKY/WX    TMP DP  RH WIND       PRES   REMARKS
NASHVILLE      PTCLDY    76  74  93 W3        30.00S
CLARKSVILLE    MOCLDY    75  70  84 E7        30.01F
COOKEVILLE     CLEAR     72  72 100 CALM      30.02R
CROSSVILLE     PTCLDY    71  68  90 W3        30.07S FOG
$$

TNZ061-075-076-078-094-096-097-231100-
SOUTH MIDDLE TENNESSEE

CITY           SKY/WX    TMP DP  RH WIND       PRES   REMARKS
FAYETTEVILLE   CLEAR     70  70 100 CALM      30.03R
TULLAHOMA      CLEAR     70  66  88 CALM      30.04R
WINCHESTER     CLEAR     72  70  94 CALM      30.03R
COLUMBIA       CLEAR     73  73 100 CALM      30.00R
SHELBYVILLE    CLEAR     72  72 100 CALM      30.03R
$$

TNZ017-018-042-046-047-231100-
NORTHEAST TENNESSEE

CITY           SKY/WX    TMP DP  RH WIND       PRES   REMARKS
TRI CITIES     CLOUDY    69  67  93 VRB3      30.04R
ELIZABETHTON   CLOUDY    66  66 100 CALM      30.04S
$$

TNZ012-013-036-069-073-074-231100-
CENTRAL EAST TENNESSEE

CITY           SKY/WX    TMP DP  RH WIND       PRES   REMARKS
KNOXVILLE      MOCLDY    73  71  93 W5        30.00R
OAK RIDGE      CLEAR     73  71  93 CALM      30.02S
GATLINBURG     PTSUNNY   72  70  94 CALM      30.00S
$$

TNZ083-085-099-231100-
SOUTHEAST TENNESSEE

CITY           SKY/WX    TMP DP  RH WIND       PRES   REMARKS
CHATTANOOGA    PTCLDY    75  71  87 CALM      30.01R
$$

SKY/WX REPORTED AS FAIR MEANS FEW OR NO CLOUDS BELOW
12 THOUSAND FEET.



USA.gov is the U.S. government's official web portal to all federal, state and local government web resources and services.